Погода в Чаковце

Хорватия     46°23′13″N   16°26′29″E
темп.,
°C
ветер,
м/с
пор.,
м/с
влажн.,
%
обл.,
%
осадки,
мм/ч
давл.,
гПа
погр.,
м
6 мая, чт
чт623:00+7всв3894100 2.6 1014796
02:00+7ююз3596100 4.0 1015188
05:00+6ю3694100 1.2 1017358
08:00+6ю4595100 3.4 1018826
11:00+7ю2586100 1.0 1018792
14:00+8ссв2381100 1.1 1016333
17:00+11с1267100 0.0 1013349
20:00+8сз2385100 0.0 1011114
7 мая, пт
пт723:00+8зюз1184100 0.0 101040
02:00+8зсз1184100 0.0 100955
05:00+6сз1290100 0.0 100941
08:00+8ссв1184100 0.0 100984
11:00+8с2497100 3.2 1010184
14:00+9с2697100 9.3 1011280
17:00+9с2698100 9.3 1012405
20:00+8з1197100 16.2 101519
8 мая, сб
сб823:00+8сз1193100 1.1 101912
02:00+6юв1192100 1.3 102110
05:00+4ююв11950 0.0 102313
08:00+7юз249150 0.0 1024381
11:00+12юз21575 0.0 10241284
14:00+15ююз1145100 0.0 10221721
17:00+15ююв23475 0.0 10211311
20:00+10юв3673100 0.0 102299
9 мая, вс
вс923:00+7ююв347235 0.0 102367
02:00+6ююв22758 0.0 102318
05:00+5ююв228241 0.0 102321
08:00+10ююв246826 0.0 1023235
11:00+15ююв45505 0.0 1022823
14:00+18ююв464552 0.0 10201195
17:00+19ю47525 0.0 10181315
20:00+13юв410760 0.0 1017215
10 мая, пн
пн1023:00+10ююв38840 0.0 1017143
02:00+9ююв38905 0.0 1016166
05:00+9ююв388875 0.0 1015156
08:00+13ю48695 0.0 1016250
11:00+20ююз510555 0.0 10151147
14:00+24ююз610490 0.0 10131778
17:00+24ююз610550 0.0 10121337
20:00+18ю410730 0.0 1012203